Terminal Aerodrome Forecast
Issued by NWS Charleston, WV

Current Version | Previous Version | Graphics & Text | Print | Product List | Glossary On
Versions: 1 2 3 4 5 6 7 8 9 10 11 12 13 14 15 16 17 18 19 20 21 22
669
FTUS41 KRLX 271501 AAA
TAFBKW
TAF AMD
KBKW 271501Z 2715/2812 13005KT P6SM SCT030
     FM271700 14006KT P6SM SCT045
     FM280400 14005KT P6SM FEW200=

USA.gov is the U.S. government's official web portal to all federal, state and local government web resources and services.